Time,TemperatureF,DewpointF,PressureIn,WindDirection,WindDirectionDegrees,WindSpeedMPH,WindSpeedGustMPH,Humidity,HourlyPrecipIn,Conditions,Clouds,dailyrainin,SoftwareType,DateUTC
2013-03-31 00:02:00,47.0,46.0,-100.00,West,265,4.0,6.0,95,0.00,,,-99.99,,2013-03-31 05:02:00,
2013-03-31 00:12:00,47.0,46.0,-100.00,SW,225,2.0,4.0,95,0.00,,,-99.99,,2013-03-31 05:12:00,
2013-03-31 00:22:00,47.0,45.0,-100.00,WSW,255,6.0,7.0,95,0.00,,,-99.99,,2013-03-31 05:22:00,
2013-03-31 00:32:00,46.0,45.0,-100.00,WSW,245,0.0,4.0,95,0.00,,,-99.99,,2013-03-31 05:32:00,
2013-03-31 00:42:00,46.0,45.0,-100.00,WSW,245,0.0,4.0,95,0.00,,,-99.99,,2013-03-31 05:42:00,
2013-03-31 00:52:00,46.0,45.0,-100.00,NNW,335,1.0,1.0,95,0.00,,,-99.99,,2013-03-31 05:52:00,
2013-03-31 01:02:00,46.0,45.0,-100.00,NNW,335,1.0,1.0,95,0.00,,,-99.99,,2013-03-31 06:02:00,
2013-03-31 01:12:00,45.0,44.0,-100.00,WNW,300,2.0,2.0,95,0.00,,,-99.99,,2013-03-31 06:12:00,
2013-03-31 01:22:00,45.0,44.0,-100.00,WNW,295,1.0,2.0,95,0.00,,,-99.99,,2013-03-31 06:22:00,
2013-03-31 01:32:00,44.0,43.0,-100.00,North,355,2.0,3.0,95,0.00,,,-99.99,,2013-03-31 06:32:00,
2013-03-31 01:42:00,44.0,43.0,-100.00,North,355,2.0,3.0,95,0.00,,,-99.99,,2013-03-31 06:42:00,
2013-03-31 01:52:00,43.0,42.0,-100.00,NNW,330,2.0,4.0,95,0.00,,,-99.99,,2013-03-31 06:52:00,
2013-03-31 02:02:00,43.0,42.0,-100.00,NNW,330,2.0,4.0,95,0.00,,,-99.99,,2013-03-31 07:02:00,
2013-03-31 02:12:00,44.0,42.0,-100.00,NNW,335,3.0,4.0,95,0.00,,,-99.99,,2013-03-31 07:12:00,
2013-03-31 02:22:00,44.0,42.0,-100.00,NNW,335,2.0,3.0,95,0.00,,,-99.99,,2013-03-31 07:22:00,
2013-03-31 02:32:00,43.0,42.0,-100.00,NNW,335,3.0,4.0,95,0.00,,,-99.99,,2013-03-31 07:32:00,
2013-03-31 02:42:00,43.0,42.0,-100.00,NNW,335,3.0,4.0,95,0.00,,,-99.99,,2013-03-31 07:42:00,
2013-03-31 02:52:00,43.0,42.0,-100.00,NNW,335,1.0,3.0,95,0.00,,,-99.99,,2013-03-31 07:52:00,
2013-03-31 03:02:00,43.0,42.0,-100.00,NNW,335,1.0,3.0,95,0.00,,,-99.99,,2013-03-31 08:02:00,
2013-03-31 03:12:00,43.0,42.0,-100.00,NNW,335,3.0,4.0,95,0.00,,,-99.99,,2013-03-31 08:12:00,
2013-03-31 03:22:00,43.0,42.0,-100.00,NNW,345,2.0,4.0,95,0.00,,,-99.99,,2013-03-31 08:22:00,
2013-03-31 03:32:00,42.0,41.0,-100.00,NNW,345,2.0,2.0,95,0.00,,,-99.99,,2013-03-31 08:32:00,
2013-03-31 03:42:00,42.0,41.0,-100.00,NNW,345,2.0,2.0,95,0.00,,,-99.99,,2013-03-31 08:42:00,
2013-03-31 03:52:00,42.0,41.0,-100.00,North,355,1.0,3.0,95,0.00,,,-99.99,,2013-03-31 08:52:00,
2013-03-31 04:02:00,42.0,41.0,-100.00,North,355,1.0,3.0,95,0.00,,,-99.99,,2013-03-31 09:02:00,
2013-03-31 04:12:00,42.0,41.0,-100.00,NNW,345,0.0,2.0,95,0.00,,,-99.99,,2013-03-31 09:12:00,
2013-03-31 04:22:00,42.0,41.0,-100.00,NNE,30,1.0,1.0,95,0.00,,,-99.99,,2013-03-31 09:22:00,
2013-03-31 04:33:00,42.0,41.0,-100.00,West,280,2.0,4.0,95,0.00,,,-99.99,,2013-03-31 09:33:00,
2013-03-31 04:42:00,42.0,41.0,-100.00,West,280,2.0,4.0,95,0.00,,,-99.99,,2013-03-31 09:42:00,
2013-03-31 04:53:00,42.0,41.0,-100.00,West,265,4.0,4.0,95,0.00,,,-99.99,,2013-03-31 09:53:00,
2013-03-31 05:03:00,42.0,41.0,-100.00,West,265,4.0,4.0,95,0.00,,,-99.99,,2013-03-31 10:03:00,
2013-03-31 05:13:00,42.0,41.0,-100.00,WNW,300,3.0,5.0,95,0.00,,,-99.99,,2013-03-31 10:13:00,
2013-03-31 05:23:00,42.0,40.0,-100.00,NW,320,2.0,5.0,95,0.00,,,-99.99,,2013-03-31 10:23:00,
2013-03-31 05:32:00,41.0,40.0,-100.00,WNW,295,4.0,7.0,95,0.00,,,-99.99,,2013-03-31 10:32:00,
2013-03-31 05:42:00,41.0,40.0,-100.00,WNW,295,4.0,7.0,95,0.00,,,-99.99,,2013-03-31 10:42:00,
2013-03-31 05:52:00,40.0,39.0,-100.00,NW,320,2.0,7.0,95,0.00,,,-99.99,,2013-03-31 10:52:00,
2013-03-31 06:02:00,40.0,39.0,-100.00,NW,320,2.0,7.0,95,0.00,,,-99.99,,2013-03-31 11:02:00,
2013-03-31 06:12:00,40.0,38.0,-100.00,NW,325,2.0,4.0,95,0.00,,,-99.99,,2013-03-31 11:12:00,
2013-03-31 06:23:00,39.0,38.0,-100.00,NW,320,3.0,5.0,95,0.00,,,-99.99,,2013-03-31 11:23:00,
2013-03-31 06:32:00,39.0,38.0,-100.00,NNW,330,6.0,9.0,95,0.00,,,-99.99,,2013-03-31 11:32:00,
2013-03-31 06:42:00,39.0,38.0,-100.00,NNW,330,6.0,9.0,95,0.00,,,-99.99,,2013-03-31 11:42:00,
2013-03-31 06:52:00,38.0,37.0,-100.00,NNW,330,5.0,6.0,95,0.00,,,-99.99,,2013-03-31 11:52:00,
2013-03-31 07:03:00,38.0,37.0,-100.00,NNW,330,5.0,6.0,95,0.00,,,-99.99,,2013-03-31 12:03:00,
2013-03-31 07:12:00,38.0,37.0,-100.00,NW,315,4.0,7.0,95,0.00,,,-99.99,,2013-03-31 12:12:00,
2013-03-31 07:22:00,37.0,36.0,-100.00,NW,310,6.0,7.0,95,0.00,,,-99.99,,2013-03-31 12:22:00,
2013-03-31 07:33:00,37.0,36.0,-100.00,NW,325,6.0,8.0,95,0.00,,,-99.99,,2013-03-31 12:33:00,
2013-03-31 07:42:00,37.0,36.0,-100.00,NW,325,6.0,8.0,95,0.00,,,-99.99,,2013-03-31 12:42:00,
2013-03-31 07:52:00,38.0,36.0,-100.00,NW,320,6.0,8.0,95,0.00,,,-99.99,,2013-03-31 12:52:00,
2013-03-31 08:02:00,38.0,36.0,-100.00,NW,320,6.0,8.0,95,0.00,,,-99.99,,2013-03-31 13:02:00,
2013-03-31 08:12:00,38.0,37.0,-100.00,NW,320,6.0,8.0,95,0.00,,,-99.99,,2013-03-31 13:12:00,
2013-03-31 08:22:00,39.0,38.0,-100.00,NW,325,4.0,8.0,95,0.00,,,-99.99,,2013-03-31 13:22:00,
2013-03-31 08:32:00,40.0,39.0,-100.00,NNW,345,7.0,9.0,95,0.00,,,-99.99,,2013-03-31 13:32:00,
2013-03-31 08:42:00,40.0,39.0,-100.00,NNW,345,7.0,9.0,95,0.00,,,-99.99,,2013-03-31 13:42:00,
2013-03-31 08:52:00,42.0,40.0,-100.00,NNW,330,6.0,9.0,95,0.00,,,-99.99,,2013-03-31 13:52:00,
2013-03-31 09:02:00,42.0,40.0,-100.00,NNW,330,6.0,9.0,95,0.00,,,-99.99,,2013-03-31 14:02:00,
2013-03-31 09:12:00,42.0,41.0,-100.00,NNW,335,7.0,10.0,95,0.00,,,-99.99,,2013-03-31 14:12:00,
2013-03-31 09:22:00,43.0,42.0,-100.00,NW,320,6.0,9.0,95,0.00,,,-99.99,,2013-03-31 14:22:00,
2013-03-31 09:32:00,44.0,43.0,-100.00,NW,325,8.0,14.0,95,0.00,,,-99.99,,2013-03-31 14:32:00,
2013-03-31 09:42:00,44.0,43.0,-100.00,NW,325,8.0,14.0,95,0.00,,,-99.99,,2013-03-31 14:42:00,
2013-03-31 09:52:00,44.0,43.0,-100.00,NW,315,11.0,14.0,95,0.00,,,-99.99,,2013-03-31 14:52:00,
2013-03-31 10:02:00,44.0,43.0,-100.00,NW,315,11.0,14.0,95,0.00,,,-99.99,,2013-03-31 15:02:00,
2013-03-31 10:12:00,45.0,44.0,-100.00,NW,315,9.0,14.0,95,0.00,,,-99.99,,2013-03-31 15:12:00,
2013-03-31 10:22:00,46.0,45.0,-100.00,NW,325,9.0,13.0,95,0.00,,,-99.99,,2013-03-31 15:22:00,
2013-03-31 10:33:00,47.0,46.0,-100.00,NNW,335,7.0,14.0,95,0.00,,,-99.99,,2013-03-31 15:33:00,
2013-03-31 10:43:00,47.0,46.0,-100.00,NNW,335,7.0,14.0,95,0.00,,,-99.99,,2013-03-31 15:43:00,
2013-03-31 10:53:00,48.0,47.0,-100.00,NNW,340,11.0,19.0,95,0.00,,,-99.99,,2013-03-31 15:53:00,
2013-03-31 11:03:00,48.0,47.0,-100.00,NNW,340,11.0,19.0,95,0.00,,,-99.99,,2013-03-31 16:03:00,
2013-03-31 11:13:00,47.0,46.0,-100.00,NNW,340,13.0,21.0,95,0.00,,,-99.99,,2013-03-31 16:13:00,
2013-03-31 11:23:00,47.0,46.0,-100.00,NNW,335,10.0,19.0,95,0.00,,,-99.99,,2013-03-31 16:23:00,
2013-03-31 11:33:00,48.0,46.0,-100.00,NNW,335,14.0,21.0,92,0.00,,,-99.99,,2013-03-31 16:33:00,
2013-03-31 11:42:00,48.0,46.0,-100.00,NNW,335,14.0,21.0,92,0.00,,,-99.99,,2013-03-31 16:42:00,
2013-03-31 11:53:00,50.0,47.0,-100.00,NNE,15,9.0,18.0,87,0.00,,,-99.99,,2013-03-31 16:53:00,
2013-03-31 12:03:00,50.0,47.0,-100.00,NNE,15,9.0,18.0,87,0.00,,,-99.99,,2013-03-31 17:03:00,
2013-03-31 12:12:00,49.0,45.0,-100.00,NNW,330,10.0,15.0,87,0.00,,,-99.99,,2013-03-31 17:12:00,
2013-03-31 12:22:00,50.0,44.0,-100.00,NNW,340,13.0,18.0,81,0.00,,,-99.99,,2013-03-31 17:22:00,
2013-03-31 12:32:00,52.0,45.0,-100.00,NW,320,7.0,16.0,78,0.00,,,-99.99,,2013-03-31 17:32:00,
2013-03-31 12:42:00,52.0,45.0,-100.00,NW,320,7.0,16.0,78,0.00,,,-99.99,,2013-03-31 17:42:00,
2013-03-31 12:52:00,52.0,41.0,-100.00,NNW,340,13.0,21.0,66,0.00,,,-99.99,,2013-03-31 17:52:00,
2013-03-31 13:02:00,52.0,41.0,-100.00,NNW,340,13.0,21.0,66,0.00,,,-99.99,,2013-03-31 18:02:00,
2013-03-31 13:12:00,52.0,40.0,-100.00,NNW,340,16.0,24.0,63,0.00,,,-99.99,,2013-03-31 18:12:00,
2013-03-31 13:22:00,52.0,39.0,-100.00,NNW,335,19.0,26.0,60,0.00,,,-99.99,,2013-03-31 18:22:00,
2013-03-31 13:32:00,53.0,37.0,-100.00,NNW,330,17.0,22.0,54,0.00,,,-99.99,,2013-03-31 18:32:00,
2013-03-31 13:42:00,53.0,37.0,-100.00,NNW,330,17.0,22.0,54,0.00,,,-99.99,,2013-03-31 18:42:00,
2013-03-31 13:52:00,54.0,36.0,-100.00,NNW,345,13.0,24.0,50,0.00,,,-99.99,,2013-03-31 18:52:00,
2013-03-31 14:03:00,54.0,36.0,-100.00,NNW,345,13.0,24.0,50,0.00,,,-99.99,,2013-03-31 19:03:00,
2013-03-31 14:12:00,54.0,34.0,-100.00,NNW,330,16.0,29.0,46,0.00,,,-99.99,,2013-03-31 19:12:00,
2013-03-31 14:22:00,55.0,35.0,-100.00,NW,320,13.0,26.0,46,0.00,,,-99.99,,2013-03-31 19:22:00,
2013-03-31 14:32:00,55.0,29.0,-100.00,NNW,345,15.0,26.0,35,0.00,,,-99.99,,2013-03-31 19:32:00,
2013-03-31 14:42:00,55.0,29.0,-100.00,NNW,345,15.0,26.0,35,0.00,,,-99.99,,2013-03-31 19:42:00,
2013-03-31 14:53:00,55.0,27.0,-100.00,NNW,340,17.0,28.0,33,0.00,,,-99.99,,2013-03-31 19:53:00,
2013-03-31 15:02:00,55.0,27.0,-100.00,NNW,340,17.0,28.0,33,0.00,,,-99.99,,2013-03-31 20:02:00,
2013-03-31 15:12:00,55.0,26.0,-100.00,NNW,340,14.0,26.0,32,0.00,,,-99.99,,2013-03-31 20:12:00,
2013-03-31 15:22:00,54.0,27.0,-100.00,NNE,20,16.0,28.0,34,0.00,,,-99.99,,2013-03-31 20:22:00,
2013-03-31 15:33:00,53.0,27.0,-100.00,NNW,340,17.0,29.0,36,0.00,,,-99.99,,2013-03-31 20:33:00,
2013-03-31 15:43:00,53.0,27.0,-100.00,NNW,340,17.0,29.0,36,0.00,,,-99.99,,2013-03-31 20:43:00,
2013-03-31 15:52:00,53.0,28.0,-100.00,NNW,335,14.0,29.0,36,0.00,,,-99.99,,2013-03-31 20:52:00,
2013-03-31 16:02:00,53.0,28.0,-100.00,NNW,335,14.0,29.0,36,0.00,,,-99.99,,2013-03-31 21:02:00,
2013-03-31 16:12:00,53.0,27.0,-100.00,NNW,345,16.0,27.0,36,0.00,,,-99.99,,2013-03-31 21:12:00,
2013-03-31 16:22:00,53.0,29.0,-100.00,NNW,340,16.0,27.0,39,0.00,,,-99.99,,2013-03-31 21:22:00,
2013-03-31 16:34:00,53.0,31.0,-100.00,North,0,9.0,24.0,42,0.00,,,-99.99,,2013-03-31 21:34:00,
2013-03-31 16:43:00,53.0,31.0,-100.00,North,0,9.0,24.0,42,0.00,,,-99.99,,2013-03-31 21:43:00,
2013-03-31 16:53:00,52.0,32.0,-100.00,NNW,345,9.0,23.0,45,0.00,,,-99.99,,2013-03-31 21:53:00,
2013-03-31 17:03:00,52.0,32.0,-100.00,NNW,345,9.0,23.0,45,0.00,,,-99.99,,2013-03-31 22:03:00,
2013-03-31 17:13:00,53.0,29.0,-100.00,NNW,330,12.0,25.0,40,0.00,,,-99.99,,2013-03-31 22:13:00,
2013-03-31 17:23:00,51.0,35.0,-100.00,North,5,12.0,22.0,54,0.00,,,-99.99,,2013-03-31 22:23:00,
2013-03-31 17:33:00,50.0,34.0,-100.00,NNE,15,13.0,21.0,54,0.00,,,-99.99,,2013-03-31 22:33:00,
2013-03-31 17:42:00,50.0,34.0,-100.00,NNE,15,13.0,21.0,54,0.00,,,-99.99,,2013-03-31 22:42:00,
2013-03-31 17:52:00,50.0,33.0,-100.00,North,0,11.0,19.0,51,0.00,,,-99.99,,2013-03-31 22:52:00,
2013-03-31 18:03:00,50.0,33.0,-100.00,North,0,11.0,19.0,51,0.00,,,-99.99,,2013-03-31 23:03:00,
2013-03-31 18:13:00,50.0,34.0,-100.00,NNE,15,12.0,17.0,54,0.00,,,-99.99,,2013-03-31 23:13:00,
2013-03-31 18:22:00,48.0,34.0,-100.00,North,5,8.0,21.0,57,0.00,,,-99.99,,2013-03-31 23:22:00,
2013-03-31 18:32:00,48.0,34.0,-100.00,NNW,335,8.0,16.0,57,0.00,,,-99.99,,2013-03-31 23:32:00,
2013-03-31 18:42:00,48.0,34.0,-100.00,NNW,335,8.0,16.0,57,0.00,,,-99.99,,2013-03-31 23:42:00,
2013-03-31 18:53:00,47.0,34.0,-100.00,NNW,345,7.0,18.0,60,0.00,,,-99.99,,2013-03-31 23:53:00,
2013-03-31 19:02:00,47.0,34.0,-100.00,NNW,345,7.0,18.0,60,0.00,,,-99.99,,2013-04-01 00:02:00,
2013-03-31 19:12:00,47.0,32.0,-100.00,NNW,335,11.0,18.0,55,0.00,,,-99.99,,2013-04-01 00:12:00,
2013-03-31 19:22:00,46.0,31.0,-100.00,NNW,330,14.0,21.0,55,0.00,,,-99.99,,2013-04-01 00:22:00,
2013-03-31 19:32:00,45.0,31.0,-100.00,NNW,345,7.0,17.0,59,0.00,,,-99.99,,2013-04-01 00:32:00,
2013-03-31 19:42:00,45.0,31.0,-100.00,NNW,345,7.0,17.0,59,0.00,,,-99.99,,2013-04-01 00:42:00,
2013-03-31 19:52:00,44.0,28.0,-100.00,NNW,330,7.0,17.0,53,0.00,,,-99.99,,2013-04-01 00:52:00,
2013-03-31 20:02:00,44.0,28.0,-100.00,NNW,330,7.0,17.0,53,0.00,,,-99.99,,2013-04-01 01:02:00,
2013-03-31 20:12:00,44.0,28.0,-100.00,NNW,340,10.0,14.0,55,0.00,,,-99.99,,2013-04-01 01:12:00,
2013-03-31 20:22:00,43.0,31.0,-100.00,North,5,7.0,14.0,62,0.00,,,-99.99,,2013-04-01 01:22:00,
2013-03-31 20:32:00,43.0,33.0,-100.00,North,5,4.0,13.0,67,0.00,,,-99.99,,2013-04-01 01:32:00,
2013-03-31 20:42:00,43.0,33.0,-100.00,North,5,4.0,13.0,67,0.00,,,-99.99,,2013-04-01 01:42:00,
2013-03-31 20:52:00,42.0,32.0,-100.00,North,0,6.0,11.0,67,0.00,,,-99.99,,2013-04-01 01:52:00,
2013-03-31 21:02:00,42.0,32.0,-100.00,North,0,6.0,11.0,67,0.00,,,-99.99,,2013-04-01 02:02:00,
2013-03-31 21:12:00,42.0,32.0,-100.00,North,5,4.0,9.0,68,0.00,,,-99.99,,2013-04-01 02:12:00,
2013-03-31 21:22:00,41.0,31.0,-100.00,North,10,14.0,17.0,66,0.00,,,-99.99,,2013-04-01 02:22:00,
2013-03-31 21:33:00,41.0,31.0,-100.00,North,5,9.0,16.0,68,0.00,,,-99.99,,2013-04-01 02:33:00,
2013-03-31 21:42:00,41.0,31.0,-100.00,North,5,9.0,16.0,68,0.00,,,-99.99,,2013-04-01 02:42:00,
2013-03-31 21:52:00,40.0,31.0,-100.00,NNW,340,9.0,15.0,69,0.00,,,-99.99,,2013-04-01 02:52:00,
2013-03-31 22:02:00,40.0,31.0,-100.00,NNW,340,9.0,15.0,69,0.00,,,-99.99,,2013-04-01 03:02:00,
2013-03-31 22:12:00,40.0,31.0,-100.00,NNW,340,6.0,12.0,68,0.00,,,-99.99,,2013-04-01 03:12:00,
2013-03-31 22:22:00,40.0,30.0,-100.00,NNW,340,12.0,20.0,67,0.00,,,-99.99,,2013-04-01 03:22:00,
2013-03-31 22:34:00,39.0,30.0,-100.00,North,350,13.0,23.0,69,0.00,,,-99.99,,2013-04-01 03:34:00,
2013-03-31 22:43:00,39.0,30.0,-100.00,North,350,13.0,23.0,69,0.00,,,-99.99,,2013-04-01 03:43:00,
2013-03-31 22:53:00,38.0,28.0,-100.00,NNW,340,12.0,24.0,66,0.00,,,-99.99,,2013-04-01 03:53:00,
2013-03-31 23:03:00,38.0,28.0,-100.00,NNW,340,12.0,24.0,66,0.00,,,-99.99,,2013-04-01 04:03:00,
2013-03-31 23:13:00,38.0,28.0,-100.00,NNW,330,12.0,19.0,66,0.00,,,-99.99,,2013-04-01 04:13:00,
2013-03-31 23:23:00,38.0,27.0,-100.00,NNW,340,12.0,17.0,64,0.00,,,-99.99,,2013-04-01 04:23:00,
2013-03-31 23:33:00,37.0,24.0,-100.00,North,5,11.0,17.0,57,0.00,,,-99.99,,2013-04-01 04:33:00,
2013-03-31 23:43:00,37.0,24.0,-100.00,North,5,11.0,17.0,57,0.00,,,-99.99,,2013-04-01 04:43:00,
2013-03-31 23:52:00,36.0,23.0,-100.00,North,5,14.0,22.0,57,0.00,,,-99.99,,2013-04-01 04:52:00,